sat.trackr.live / text

‹ back to catalog

STARLINK-35145

NORAD 65685 · 2025-212K

PAYLOAD ACTIVE UNKNOWN

§ Identity

Operator
Country
US
Launch date
2025-09-21
Launch site
AFETR
Launch vehicle
Mass (kg)
RCS (m²)

Purposes: comms

External: N2YO · Heavens-Above · Gunter

§ Orbital elements

Epoch: 2026-05-25T04:00:03.998880Z

Period
93.90 min
Inclination
53.1596°
Eccentricity
0.0000999
Mean motion
15.33552465 rev/d
Perigee alt
464.5 km
Apogee alt
465.9 km
Semi-major
6,843.4 km
B*
-3.6802e-4
RAAN
350.5995°
Arg perigee
75.3409°
Mean anomaly
167.6301°
Rev number
585

§ Raw data

STARLINK-351451 65685U 25212K   26145.16671295 -.00012457  00000+0 -36802-3 0  99992 65685  53.1596 350.5995 0000999  75.3409 167.6301 15.33552465  5853

JSON: /api/v1/satellites/65685 · /tle

For live sub-satellite position, see the globe view (requires WebGL).

§ Visibility from observer

Set your observer location to see the next 7 days of passes ≥ 10°. The values pass through the URL so the page stays shareable.

No JS? Fill the form by hand. The geolocation button needs JavaScript.